Drummond Island, MI

3:42 PM EST on February 19, 2018 (GMT -0500)
Drummond Island

Weather History for KDRM - April, 2013

Change the Weather History Date:

Saturday, April 13, 2013

  Actual Average (KCIU) Record (KCIU)
Temperature  
Mean Temperature 32 °F -  
Max Temperature 36 °F 45 °F 60 °F (1998)
Min Temperature 27 °F 26 °F 1 °F (1992)
Degree Days  
Heating Degree Days 34    
Moisture  
Dew Point 28 °F    
Average Humidity 90    
Maximum Humidity 100    
Minimum Humidity 67    
Precipitation  
Precipitation 0.00 in - - ()
Sea Level Pressure  
Sea Level Pressure 29.71 in    
Wind  
Wind Speed 2 mph (WSW)    
Max Wind Speed 13 mph    
Max Gust Speed 21 mph    
Visibility 8 miles    
Events Snow    
Averages and records for this station are not official NWS values.
T = Trace of Precipitation, MM = Missing Value Source: NWS Daily Summary

Daily Weather History Graph

Daily Weather History Graph

Search for Another Location

Airport or City:

Trip Planner

Search our weather history database for the weather conditions in past years. The results will help you decide how hot, cold, wet, or windy it might be!

Date:

Astronomy

Apr. 13, 2013 Rise Set
Actual Time 6:51 AM EDT 8:19 PM EDT
Civil Twilight 6:20 AM EDT 8:50 PM EDT
Nautical Twilight 5:43 AM EDT 9:28 PM EDT
Astronomical Twilight 5:02 AM EDT 10:09 PM EDT
Moon 8:33 AM EDT (4/13) 11:52 PM EDT (4/13)
Length of Visible Light 14h 30m
Length of Day
13h 27m
Waxing Crescent, 10% of the Moon is Illuminated
Apr 13
Waxing Crescent
Apr 18
First Quarter
Apr 25
Full
May 2
Last Quarter
May 9
New

Hourly Weather History & Observations

Time (EDT) Temp. Windchill Dew Point Humidity Pressure Visibility Wind Dir Wind Speed Gust Speed Precip Events Conditions
12:15 AM 28.8 °F - 28.4 °F 99% 29.68 in 4.0 mi Calm Calm - N/A Snow Light Snow
12:35 AM 28.2 °F - 28.0 °F 99% 29.68 in 7.0 mi Calm Calm - N/A Snow Light Snow
12:55 AM 28.0 °F - 28.0 °F 100% 29.67 in 5.0 mi Calm Calm - N/A Snow Light Snow
1:15 AM 28.2 °F - 28.2 °F 100% 29.68 in 7.0 mi Calm Calm - N/A Snow Light Snow
1:35 AM 28.2 °F - 28.2 °F 100% 29.68 in 7.0 mi Calm Calm - N/A   Overcast
1:55 AM 28.0 °F - 28.0 °F 100% 29.68 in 10.0 mi Calm Calm - N/A   Overcast
2:15 AM 27.9 °F - 27.9 °F 100% 29.68 in 10.0 mi Calm Calm - N/A   Overcast
2:35 AM 27.5 °F - 27.5 °F 100% 29.68 in 10.0 mi Calm Calm - N/A   Overcast
2:55 AM 27.5 °F - 27.5 °F 100% 29.67 in 10.0 mi Calm Calm - N/A   Overcast
3:15 AM 27.5 °F - 27.5 °F 100% 29.67 in 10.0 mi Calm Calm - N/A   Overcast
3:35 AM 27.9 °F - 27.9 °F 100% 29.68 in 10.0 mi Calm Calm - N/A   Overcast
3:55 AM 27.5 °F - 27.5 °F 100% 29.68 in 10.0 mi Calm Calm - N/A   Overcast
4:15 AM 27.5 °F - 27.5 °F 100% 29.67 in 10.0 mi Calm Calm - N/A   Overcast
4:35 AM 27.3 °F - 27.3 °F 100% 29.68 in 10.0 mi Calm Calm - N/A   Overcast
4:55 AM 27.3 °F - 27.3 °F 100% 29.67 in 10.0 mi Calm Calm - N/A   Overcast
5:15 AM 27.5 °F - 27.5 °F 100% 29.67 in 10.0 mi Calm Calm - N/A   Overcast
5:35 AM 27.9 °F - 27.9 °F 100% 29.68 in 10.0 mi Calm Calm - N/A   Overcast
5:55 AM 28.4 °F - 27.9 °F 98% 29.68 in 10.0 mi Calm Calm - N/A   Overcast
6:15 AM 28.2 °F - 27.3 °F 96% 29.68 in 10.0 mi Calm Calm - N/A   Overcast
6:35 AM 28.4 °F - 27.3 °F 96% 29.67 in 10.0 mi Calm Calm - N/A   Overcast
6:55 AM 28.4 °F - 27.1 °F 95% 29.67 in 10.0 mi Calm Calm - N/A   Overcast
7:15 AM 27.9 °F - 27.0 °F 96% 29.67 in 10.0 mi Calm Calm - N/A   Overcast
7:35 AM 27.5 °F - 27.0 °F 98% 29.67 in 10.0 mi Calm Calm - N/A   Overcast
7:55 AM 27.5 °F - 27.1 °F 99% 29.67 in 10.0 mi Calm Calm - N/A   Overcast
8:15 AM 28.0 °F - 27.3 °F 97% 29.68 in 5.0 mi Calm Calm - N/A Snow Light Snow
8:35 AM 28.9 °F - 27.9 °F 96% 29.68 in 7.0 mi Calm Calm - N/A Snow Light Snow
8:55 AM 29.5 °F - 28.0 °F 94% 29.68 in 4.0 mi Calm Calm - N/A Snow Light Snow
9:15 AM 30.0 °F 26.5 °F 28.4 °F 94% 29.68 in 3.0 mi WSW 3.5 mph - N/A Snow Light Snow
9:35 AM 30.2 °F - 28.4 °F 93% 29.68 in 7.0 mi Calm Calm - N/A Snow Light Snow
9:55 AM 30.6 °F - 28.9 °F 94% 29.68 in 7.0 mi Calm Calm - N/A Snow Light Snow
10:15 AM 32.0 °F 27.5 °F 29.5 °F 90% 29.68 in 1.2 mi WSW 4.6 mph - N/A Snow Light Snow
10:35 AM 32.0 °F 26.4 °F 29.8 °F 92% 29.68 in 2.0 mi WSW 5.8 mph - N/A Snow Light Snow
10:55 AM 32.5 °F 28.1 °F 29.3 °F 88% 29.68 in 7.0 mi WNW 4.6 mph - N/A   Overcast
11:15 AM 33.4 °F - 29.7 °F 86% 29.68 in 4.0 mi Calm Calm - N/A Snow Light Snow
11:35 AM 33.4 °F 30.4 °F 29.8 °F 87% 29.68 in 2.0 mi WSW 3.5 mph - N/A Snow Light Snow
11:55 AM 33.1 °F 26.9 °F 29.8 °F 88% 29.68 in 2.0 mi SW 6.9 mph - N/A Snow Light Snow
12:15 PM 34.0 °F 27.2 °F 29.3 °F 83% 29.68 in 5.0 mi WSW 8.1 mph - N/A Snow Light Snow
12:35 PM 33.8 °F 28.6 °F 28.2 °F 80% 29.68 in 5.0 mi WSW 5.8 mph - N/A   Haze
12:55 PM 33.8 °F 28.6 °F 29.1 °F 83% 29.68 in 4.0 mi SSW 5.8 mph - N/A Snow Light Snow
1:15 PM 35.2 °F 32.4 °F 28.6 °F 77% 29.68 in 10.0 mi SW 3.5 mph - N/A Snow Light Snow
1:35 PM 34.7 °F 27.5 °F 29.1 °F 80% 29.68 in 7.0 mi SSW 9.2 mph - N/A   Overcast
1:55 PM 35.2 °F 30.3 °F 28.0 °F 75% 29.68 in 10.0 mi WSW 5.8 mph - N/A   Overcast
2:15 PM 35.1 °F 28.6 °F 27.0 °F 72% 29.68 in 10.0 mi WSW 8.1 mph - N/A   Overcast
2:35 PM 36.9 °F 31.4 °F 27.3 °F 68% 29.68 in 10.0 mi WSW 6.9 mph - N/A   Overcast
2:55 PM 36.7 °F 31.2 °F 27.3 °F 69% 29.68 in 10.0 mi WSW 6.9 mph - N/A   Overcast
3:15 PM 34.9 °F 27.7 °F 29.1 °F 79% 29.69 in 5.0 mi SSW 9.2 mph - N/A Snow Light Snow
3:35 PM 34.2 °F 27.5 °F 29.7 °F 84% 29.70 in 2.5 mi SW 8.1 mph - N/A Snow Light Snow
3:55 PM 34.2 °F 29.0 °F 29.7 °F 84% 29.70 in 4.0 mi SW 5.8 mph - N/A Snow Light Snow
4:15 PM 34.7 °F 28.1 °F 28.6 °F 78% 29.70 in 10.0 mi SSW 8.1 mph - N/A   Overcast
4:35 PM 35.6 °F 28.6 °F 26.8 °F 70% 29.70 in 10.0 mi SW 9.2 mph 16.1 mph N/A   Scattered Clouds
4:55 PM 34.0 °F 25.0 °F 28.4 °F 80% 29.71 in 10.0 mi SSW 12.7 mph 17.3 mph N/A   Mostly Cloudy
5:15 PM 34.3 °F 27.7 °F 27.3 °F 76% 29.71 in 10.0 mi WSW 8.1 mph 18.4 mph N/A   Overcast
5:35 PM 34.7 °F 28.1 °F 26.4 °F 72% 29.72 in 10.0 mi West 8.1 mph 17.3 mph N/A   Mostly Cloudy
5:55 PM 34.9 °F 27.1 °F 24.8 °F 67% 29.73 in 10.0 mi WSW 10.4 mph 20.7 mph N/A   Mostly Cloudy
6:15 PM 34.2 °F 27.5 °F 25.7 °F 71% 29.74 in 10.0 mi West 8.1 mph 17.3 mph N/A   Mostly Cloudy
6:35 PM 33.4 °F 26.6 °F 28.0 °F 81% 29.75 in 10.0 mi West 8.1 mph - N/A Snow Light Snow
6:55 PM 32.7 °F 26.4 °F 29.3 °F 87% 29.76 in 2.0 mi WSW 6.9 mph - N/A Snow Light Snow
7:15 PM 32.0 °F 23.6 °F 30.2 °F 93% 29.77 in 1.5 mi WSW 10.4 mph 17.3 mph N/A Snow Light Snow
7:35 PM 31.8 °F 25.4 °F 30.2 °F 94% 29.77 in 1.8 mi West 6.9 mph - N/A Snow Light Snow
8:15 PM 31.1 °F 25.4 °F 30.6 °F 98% 29.78 in 3.0 mi WNW 5.8 mph - N/A Snow Light Snow
8:35 PM 31.1 °F 27.7 °F 30.2 °F 96% 29.78 in 10.0 mi WNW 3.5 mph - N/A   Overcast
8:55 PM 30.7 °F 26.0 °F 29.8 °F 96% 29.80 in 10.0 mi WNW 4.6 mph - N/A   Overcast
9:15 PM 30.6 °F 25.8 °F 29.3 °F 95% 29.80 in 10.0 mi WNW 4.6 mph - N/A   Scattered Clouds
9:35 PM 30.2 °F 25.4 °F 28.0 °F 92% 29.81 in 10.0 mi WNW 4.6 mph - N/A   Clear
9:55 PM 29.7 °F 23.7 °F 27.7 °F 92% 29.82 in 10.0 mi WNW 5.8 mph - N/A   Scattered Clouds
10:15 PM 29.3 °F 25.6 °F 27.9 °F 94% 29.83 in 10.0 mi West 3.5 mph - N/A   Mostly Cloudy
10:35 PM 28.8 °F - 27.1 °F 94% 29.83 in 10.0 mi Calm Calm - N/A   Scattered Clouds
10:55 PM 28.4 °F - 27.1 °F 95% 29.84 in 10.0 mi Calm Calm - N/A   Clear
11:15 PM 28.4 °F 24.6 °F 27.1 °F 95% 29.84 in 10.0 mi West 3.5 mph - N/A   Scattered Clouds
11:35 PM 28.8 °F - 27.5 °F 95% 29.84 in 10.0 mi Calm Calm - N/A   Mostly Cloudy
11:55 PM 29.3 °F - 28.2 °F 96% 29.85 in 10.0 mi Calm Calm - N/A   Overcast